Regional Weather Roundup
Issued by NWS

Home | Current Version | Previous Version | Graphics & Text | Print | Product List | Glossary On
Versions: 1 2 3 4 5 6 7 8 9 10 11 12 13 14 15 16 17 18 19 20 21 22 23 24 25 26 27 28
000
ASUS45 KBOI 230610
RWRID

IDAHO REGIONAL WEATHER ROUNDUP
NATIONAL WEATHER SERVICE BOISE ID
1200 AM MDT WED AUG 23 2017

NOTE: "FAIR" INDICATES FEW OR NO CLOUDS BELOW 12000 FEET
WITH NO SIGNIFICANT WEATHER AND/OR OBSTRUCTIONS TO VISIBILITY

IDZ012-014-230700-
SOUTHWEST IDAHO


CITY           SKY/WX    TMP DP  RH WIND       PRES   REMARKS
BOISE          PTCLDY    73  45  36 E8        29.97F
CALDWELL       PTCLDY    67  54  63 CALM      29.96R
MOUNTAIN HOME  MOCLDY    74  47  37 S7        29.99S
$$

IDZ016-017-230700-
SOUTHCENTRAL IDAHO


CITY           SKY/WX    TMP DP  RH WIND       PRES   REMARKS
BURLEY         CLOUDY    73  47  39 S16       30.08S
JEROME         CLOUDY    75  48  38 SW7       30.08F
TWIN FALLS     CLOUDY    77  46  33 S16       30.09R
$$

IDZ019>023-230700-
SOUTHEAST IDAHO


CITY           SKY/WX    TMP DP  RH WIND       PRES   REMARKS
IDAHO FALLS    CLEAR     61  44  53 CALM      30.14S
POCATELLO      CLOUDY    75  47  36 S14       30.13S
REXBURG        CLEAR     58  42  55 NE3       30.14F
$$

IDZ006-010-011-018-031-032-230700-
CENTRAL IDAHO MOUNTAINS


CITY           SKY/WX    TMP DP  RH WIND       PRES   REMARKS
MCCALL         CLEAR     65  45  48 CALM      30.14F
HAILEY         PTCLDY    59  39  47 NW6       30.19F
STANLEY          N/A     50  30  46 CALM      30.29S
SALMON         CLEAR     60  39  45 NW5       30.11S
CHALLIS        CLEAR     62  35  36 SW3       30.17S HAZE
$$

IDZ002-004-006-007-026-230700-
NORTHERN IDAHO


CITY           SKY/WX    TMP DP  RH WIND       PRES   REMARKS
LEWISTON       CLEAR     75  41  29 S6        29.91S
LOWELL           N/A     63  52  67 CALM      29.97S
COEUR D`ALENE  CLEAR     68  48  48 CALM      29.96S
MULLAN PASS    CLEAR     67  35  30 SW5       30.20F
$$




USA.gov is the U.S. government's official web portal to all federal, state and local government web resources and services.